GEFSNE_prec_meanprecacc_114.txt.gz
Total_Precipitation_Accumulation
0.34 0.33 0.31 0.29 0.29 0.29 0.30 0.34 0.40 0.41 0.32 0.20 0.17 0.15 0.16 0.23 0.36 0.37 0.33 0.23 0.16 0.11 0.08 0.06 0.05 0.06 0.07 0.08 0.08 0.10 0.13 0.18 0.30 0.45 0.60 0.73 0.83 0.91
0.28 0.26 0.24 0.22 0.22 0.21 0.23 0.25 0.30 0.39 0.35 0.20 0.13 0.12 0.16 0.21 0.35 0.38 0.40 0.35 0.25 0.16 0.11 0.08 0.07 0.07 0.08 0.10 0.11 0.12 0.15 0.19 0.27 0.37 0.51 0.65 0.77 0.91
0.23 0.21 0.19 0.16 0.17 0.17 0.18 0.20 0.23 0.30 0.34 0.22 0.14 0.13 0.17 0.24 0.31 0.34 0.34 0.32 0.28 0.26 0.18 0.15 0.13 0.11 0.11 0.12 0.14 0.17 0.21 0.26 0.32 0.39 0.51 0.66 0.76 0.81
0.20 0.17 0.16 0.15 0.15 0.15 0.16 0.18 0.21 0.28 0.36 0.34 0.21 0.14 0.16 0.21 0.27 0.29 0.25 0.24 0.27 0.29 0.22 0.16 0.13 0.13 0.18 0.15 0.13 0.16 0.22 0.31 0.39 0.45 0.55 0.65 0.72 0.75
0.18 0.18 0.18 0.18 0.17 0.17 0.19 0.21 0.24 0.28 0.37 0.40 0.27 0.20 0.19 0.26 0.36 0.35 0.30 0.38 0.31 0.26 0.22 0.18 0.16 0.17 0.40 0.46 0.22 0.18 0.21 0.33 0.40 0.46 0.57 0.63 0.63 0.61
0.11 0.14 0.16 0.17 0.19 0.23 0.24 0.27 0.31 0.36 0.37 0.39 0.32 0.25 0.26 0.31 0.43 0.50 0.46 0.43 0.39 0.24 0.27 0.24 0.23 0.28 0.65 1.20 0.67 0.35 0.29 0.33 0.39 0.44 0.49 0.49 0.46 0.42
0.09 0.12 0.13 0.14 0.19 0.21 0.23 0.27 0.36 0.42 0.44 0.47 0.42 0.36 0.34 0.43 0.51 0.53 0.50 0.48 0.41 0.33 0.39 0.35 0.50 0.84 1.36 2.00 1.54 0.88 0.63 0.52 0.45 0.45 0.46 0.45 0.40 0.32
0.13 0.13 0.10 0.10 0.10 0.11 0.15 0.23 0.32 0.42 0.50 0.56 0.54 0.52 0.46 0.51 0.60 0.61 0.61 0.60 0.49 0.36 0.40 0.41 0.70 1.45 2.16 2.54 2.11 1.31 0.98 0.77 0.63 0.64 0.65 0.56 0.43 0.32
0.17 0.16 0.12 0.10 0.14 0.20 0.19 0.19 0.28 0.34 0.47 0.62 0.67 0.60 0.57 0.60 0.71 0.75 0.71 0.70 0.66 0.48 0.50 0.54 0.87 1.73 2.08 2.30 2.11 1.44 1.14 0.96 0.85 0.88 0.85 0.64 0.44 0.32
0.14 0.16 0.21 0.24 0.18 0.15 0.17 0.27 0.39 0.46 0.50 0.56 0.65 0.60 0.56 0.57 0.65 0.68 0.67 0.68 0.62 0.55 0.58 0.68 0.97 1.61 1.73 1.87 1.94 1.50 1.23 1.10 1.03 1.00 0.92 0.68 0.47 0.37
0.11 0.12 0.15 0.21 0.15 0.14 0.22 0.40 0.49 0.61 0.62 0.74 0.74 0.68 0.67 0.65 0.56 0.54 0.68 0.79 0.73 0.54 0.53 0.67 0.92 1.27 1.40 1.54 1.57 1.46 1.34 1.25 1.15 1.08 0.96 0.70 0.52 0.44
0.15 0.18 0.14 0.11 0.12 0.17 0.26 0.45 0.61 0.68 0.83 1.02 0.98 0.91 0.85 0.80 0.67 0.61 0.79 0.91 0.87 0.70 0.56 0.63 0.81 1.00 1.22 1.31 1.26 1.23 1.32 1.37 1.29 1.25 1.08 0.78 0.52 0.44
0.19 0.24 0.24 0.17 0.16 0.19 0.30 0.50 0.67 0.70 0.90 1.17 1.06 0.88 0.81 0.74 0.73 0.74 0.80 0.84 0.81 0.77 0.61 0.66 0.82 0.94 1.05 1.16 1.18 1.20 1.20 1.27 1.32 1.39 1.29 0.99 0.65 0.46
0.30 0.30 0.29 0.25 0.22 0.28 0.41 0.60 0.73 0.88 1.03 1.13 0.95 0.76 0.64 0.61 0.62 0.59 0.57 0.59 0.63 0.64 0.60 0.66 0.86 1.01 1.01 0.95 1.10 1.16 1.19 1.25 1.32 1.39 1.40 1.18 0.89 0.68
0.29 0.34 0.33 0.30 0.37 0.56 0.68 0.79 0.91 1.06 1.09 0.96 0.82 0.71 0.58 0.52 0.49 0.48 0.47 0.50 0.54 0.48 0.44 0.50 0.70 0.89 0.94 0.91 1.01 1.06 1.17 1.40 1.45 1.44 1.41 1.26 1.04 0.82
0.26 0.39 0.47 0.50 0.64 0.84 0.97 1.06 1.13 1.14 0.99 0.87 0.75 0.65 0.53 0.48 0.46 0.42 0.44 0.46 0.49 0.50 0.44 0.45 0.58 0.74 0.84 0.84 0.93 1.05 1.14 1.54 1.67 1.49 1.43 1.40 1.19 0.97
0.25 0.40 0.56 0.62 0.76 0.91 1.02 1.07 1.09 1.07 0.98 0.85 0.74 0.64 0.55 0.50 0.47 0.41 0.40 0.42 0.45 0.47 0.48 0.50 0.57 0.62 0.67 0.72 0.88 1.04 1.18 1.43 1.57 1.39 1.25 1.36 1.31 1.09
0.30 0.50 0.63 0.65 0.74 0.83 0.92 0.99 0.98 0.93 0.86 0.80 0.75 0.69 0.60 0.52 0.49 0.44 0.41 0.41 0.44 0.45 0.46 0.45 0.44 0.42 0.47 0.61 0.87 0.98 1.03 1.23 1.29 1.16 0.97 1.03 1.21 1.08
0.37 0.57 0.67 0.73 0.78 0.81 0.82 0.85 0.90 0.89 0.81 0.74 0.70 0.63 0.55 0.49 0.46 0.43 0.38 0.37 0.38 0.38 0.36 0.30 0.27 0.25 0.30 0.62 0.93 1.03 0.97 0.97 0.94 0.92 0.84 0.79 0.94 0.95
0.41 0.56 0.67 0.73 0.77 0.79 0.77 0.73 0.76 0.78 0.72 0.64 0.59 0.54 0.49 0.46 0.41 0.39 0.35 0.28 0.27 0.26 0.26 0.23 0.22 0.23 0.28 0.49 0.91 1.14 0.96 0.72 0.64 0.68 0.69 0.69 0.81 0.87
0.38 0.50 0.60 0.65 0.66 0.66 0.67 0.65 0.65 0.67 0.63 0.57 0.53 0.49 0.45 0.41 0.37 0.30 0.26 0.18 0.21 0.22 0.23 0.27 0.28 0.22 0.19 0.25 0.54 0.85 0.90 0.81 0.60 0.51 0.50 0.52 0.56 0.53
0.34 0.45 0.54 0.56 0.55 0.51 0.49 0.49 0.50 0.50 0.50 0.48 0.47 0.45 0.41 0.36 0.29 0.24 0.21 0.21 0.22 0.20 0.20 0.22 0.21 0.18 0.18 0.23 0.40 0.60 0.68 0.60 0.54 0.53 0.49 0.38 0.32 0.40
0.32 0.36 0.42 0.45 0.44 0.40 0.36 0.34 0.34 0.37 0.38 0.38 0.39 0.38 0.33 0.29 0.23 0.18 0.16 0.13 0.13 0.14 0.13 0.16 0.16 0.15 0.15 0.17 0.23 0.31 0.34 0.32 0.28 0.31 0.45 0.48 0.41 0.47

GEFSNE_prec_meanprecacc_120.txt.gz
Total_Precipitation_Accumulation
0.46 0.45 0.45 0.46 0.47 0.52 0.56 0.62 0.68 0.70 0.59 0.45 0.39 0.33 0.28 0.33 0.47 0.44 0.38 0.29 0.21 0.15 0.12 0.10 0.09 0.09 0.09 0.10 0.10 0.11 0.14 0.18 0.30 0.45 0.60 0.74 0.83 0.92
0.40 0.39 0.39 0.39 0.40 0.42 0.46 0.48 0.52 0.59 0.57 0.40 0.30 0.27 0.27 0.30 0.45 0.44 0.45 0.39 0.28 0.18 0.13 0.10 0.09 0.09 0.09 0.10 0.11 0.13 0.15 0.19 0.27 0.37 0.52 0.66 0.77 0.91
0.34 0.34 0.33 0.33 0.35 0.34 0.37 0.40 0.42 0.48 0.54 0.43 0.32 0.27 0.29 0.33 0.38 0.38 0.37 0.35 0.30 0.27 0.19 0.15 0.13 0.11 0.11 0.12 0.14 0.17 0.21 0.26 0.32 0.39 0.52 0.67 0.77 0.82
0.28 0.27 0.28 0.28 0.30 0.31 0.33 0.35 0.39 0.45 0.53 0.50 0.36 0.27 0.26 0.28 0.31 0.32 0.28 0.26 0.27 0.30 0.23 0.16 0.14 0.13 0.18 0.15 0.13 0.16 0.22 0.31 0.39 0.45 0.55 0.65 0.72 0.75
0.25 0.25 0.27 0.28 0.27 0.27 0.30 0.33 0.37 0.41 0.49 0.52 0.40 0.30 0.27 0.31 0.41 0.39 0.32 0.40 0.32 0.27 0.22 0.18 0.16 0.17 0.40 0.46 0.22 0.18 0.21 0.33 0.40 0.46 0.57 0.63 0.63 0.61
0.17 0.20 0.23 0.25 0.26 0.30 0.31 0.35 0.39 0.43 0.45 0.47 0.39 0.31 0.32 0.35 0.47 0.53 0.49 0.45 0.39 0.24 0.27 0.24 0.23 0.28 0.65 1.20 0.67 0.35 0.29 0.33 0.39 0.44 0.49 0.49 0.46 0.42
0.14 0.17 0.18 0.19 0.23 0.25 0.27 0.33 0.41 0.47 0.49 0.52 0.46 0.41 0.38 0.47 0.54 0.56 0.53 0.50 0.42 0.33 0.39 0.35 0.50 0.84 1.37 2.00 1.54 0.88 0.63 0.52 0.45 0.45 0.46 0.45 0.40 0.32
0.16 0.16 0.13 0.12 0.12 0.13 0.17 0.24 0.35 0.45 0.53 0.60 0.58 0.55 0.49 0.54 0.63 0.64 0.63 0.61 0.51 0.36 0.40 0.42 0.70 1.45 2.16 2.54 2.11 1.31 0.98 0.77 0.63 0.64 0.65 0.56 0.43 0.32
0.21 0.19 0.15 0.11 0.15 0.20 0.19 0.20 0.28 0.35 0.49 0.65 0.70 0.63 0.60 0.63 0.73 0.77 0.72 0.72 0.68 0.50 0.51 0.55 0.87 1.73 2.08 2.30 2.11 1.44 1.14 0.96 0.85 0.88 0.85 0.64 0.44 0.32
0.15 0.17 0.22 0.25 0.19 0.16 0.17 0.28 0.39 0.47 0.51 0.56 0.66 0.62 0.59 0.60 0.67 0.71 0.69 0.70 0.63 0.56 0.58 0.70 0.99 1.61 1.73 1.87 1.94 1.50 1.23 1.10 1.03 1.00 0.92 0.68 0.47 0.37
0.11 0.12 0.15 0.21 0.15 0.14 0.23 0.41 0.50 0.61 0.63 0.75 0.75 0.69 0.69 0.68 0.59 0.57 0.71 0.82 0.76 0.57 0.54 0.69 0.94 1.28 1.41 1.55 1.57 1.46 1.34 1.25 1.15 1.08 0.96 0.70 0.52 0.44
0.15 0.19 0.15 0.11 0.12 0.17 0.27 0.47 0.63 0.70 0.84 1.03 0.99 0.92 0.86 0.81 0.68 0.63 0.82 0.96 0.93 0.75 0.59 0.65 0.83 1.01 1.24 1.32 1.27 1.24 1.32 1.37 1.29 1.25 1.08 0.78 0.52 0.44
0.20 0.25 0.25 0.17 0.17 0.19 0.30 0.52 0.69 0.71 0.91 1.18 1.07 0.90 0.83 0.76 0.74 0.75 0.82 0.87 0.84 0.81 0.63 0.67 0.85 0.97 1.09 1.18 1.18 1.21 1.21 1.28 1.32 1.39 1.29 0.99 0.65 0.46
0.30 0.30 0.29 0.26 0.23 0.28 0.41 0.60 0.74 0.88 1.04 1.14 0.96 0.78 0.66 0.63 0.64 0.60 0.59 0.61 0.65 0.66 0.61 0.68 0.89 1.05 1.05 0.98 1.11 1.16 1.19 1.26 1.32 1.39 1.40 1.18 0.89 0.68
0.30 0.34 0.33 0.30 0.37 0.56 0.68 0.79 0.91 1.07 1.10 0.98 0.83 0.73 0.59 0.52 0.50 0.50 0.48 0.52 0.55 0.49 0.44 0.50 0.72 0.91 0.97 0.93 1.03 1.07 1.18 1.40 1.45 1.44 1.41 1.26 1.04 0.82
0.26 0.39 0.47 0.50 0.64 0.84 0.97 1.06 1.14 1.14 0.99 0.87 0.77 0.67 0.54 0.49 0.48 0.44 0.46 0.47 0.51 0.51 0.44 0.46 0.58 0.75 0.86 0.85 0.94 1.06 1.15 1.54 1.67 1.50 1.43 1.40 1.19 0.97
0.25 0.40 0.56 0.62 0.76 0.91 1.02 1.07 1.09 1.08 0.99 0.86 0.75 0.65 0.56 0.51 0.48 0.41 0.41 0.42 0.45 0.48 0.48 0.50 0.57 0.62 0.68 0.73 0.89 1.05 1.18 1.43 1.57 1.39 1.25 1.36 1.31 1.09
0.31 0.51 0.63 0.66 0.74 0.83 0.92 0.99 0.98 0.94 0.86 0.81 0.76 0.69 0.61 0.53 0.49 0.44 0.41 0.41 0.44 0.45 0.46 0.45 0.44 0.42 0.48 0.62 0.87 0.98 1.04 1.23 1.30 1.16 0.97 1.03 1.21 1.08
0.38 0.57 0.68 0.74 0.78 0.81 0.83 0.85 0.90 0.90 0.81 0.75 0.70 0.64 0.56 0.49 0.46 0.43 0.38 0.37 0.38 0.38 0.36 0.30 0.27 0.25 0.30 0.63 0.93 1.03 0.97 0.97 0.95 0.92 0.84 0.79 0.94 0.95
0.42 0.57 0.67 0.73 0.77 0.79 0.77 0.73 0.76 0.78 0.72 0.64 0.59 0.54 0.49 0.46 0.41 0.39 0.35 0.28 0.27 0.27 0.26 0.23 0.22 0.23 0.28 0.49 0.91 1.14 0.96 0.72 0.64 0.68 0.69 0.69 0.81 0.87
0.38 0.50 0.60 0.65 0.66 0.66 0.67 0.65 0.65 0.67 0.63 0.57 0.53 0.49 0.45 0.41 0.37 0.30 0.26 0.18 0.21 0.22 0.23 0.27 0.28 0.22 0.19 0.25 0.54 0.86 0.90 0.81 0.60 0.51 0.50 0.53 0.56 0.53
0.34 0.45 0.54 0.56 0.55 0.51 0.49 0.49 0.50 0.50 0.50 0.48 0.47 0.45 0.41 0.36 0.29 0.24 0.21 0.21 0.22 0.20 0.20 0.22 0.21 0.18 0.18 0.23 0.40 0.61 0.68 0.60 0.54 0.53 0.49 0.38 0.32 0.40
0.32 0.36 0.42 0.45 0.44 0.40 0.36 0.34 0.34 0.37 0.38 0.38 0.39 0.38 0.33 0.29 0.23 0.18 0.16 0.13 0.13 0.14 0.13 0.16 0.16 0.15 0.15 0.17 0.23 0.31 0.34 0.32 0.28 0.31 0.45 0.48 0.41 0.47

GEFSNE_prec_meanprecacc_126.txt.gz
Total_Precipitation_Accumulation
0.56 0.56 0.59 0.61 0.64 0.70 0.75 0.83 0.90 0.93 0.83 0.67 0.60 0.54 0.46 0.48 0.62 0.54 0.45 0.37 0.28 0.21 0.18 0.17 0.17 0.17 0.17 0.16 0.16 0.16 0.18 0.21 0.33 0.47 0.61 0.75 0.84 0.92
0.51 0.49 0.49 0.51 0.53 0.55 0.61 0.64 0.68 0.76 0.76 0.60 0.49 0.45 0.43 0.44 0.56 0.51 0.51 0.46 0.33 0.23 0.18 0.15 0.13 0.13 0.14 0.14 0.14 0.15 0.18 0.21 0.29 0.38 0.52 0.67 0.78 0.92
0.43 0.44 0.43 0.43 0.45 0.45 0.48 0.52 0.56 0.62 0.72 0.65 0.50 0.43 0.42 0.44 0.47 0.44 0.42 0.39 0.34 0.30 0.22 0.18 0.15 0.13 0.13 0.14 0.15 0.19 0.22 0.27 0.32 0.39 0.52 0.67 0.77 0.83
0.35 0.35 0.35 0.37 0.39 0.39 0.41 0.45 0.52 0.59 0.69 0.68 0.53 0.41 0.37 0.36 0.37 0.37 0.31 0.28 0.30 0.32 0.25 0.18 0.15 0.14 0.18 0.16 0.13 0.16 0.22 0.31 0.39 0.45 0.55 0.65 0.72 0.76
0.30 0.32 0.34 0.36 0.36 0.36 0.38 0.42 0.49 0.56 0.66 0.67 0.55 0.43 0.37 0.38 0.46 0.43 0.36 0.43 0.35 0.29 0.24 0.18 0.16 0.17 0.40 0.46 0.22 0.18 0.21 0.33 0.40 0.46 0.57 0.63 0.63 0.61
0.23 0.27 0.32 0.35 0.36 0.39 0.40 0.44 0.49 0.55 0.58 0.62 0.53 0.43 0.42 0.43 0.54 0.60 0.55 0.50 0.43 0.26 0.28 0.24 0.23 0.28 0.65 1.20 0.67 0.35 0.29 0.33 0.39 0.44 0.49 0.49 0.46 0.42
0.19 0.22 0.24 0.27 0.32 0.33 0.34 0.40 0.49 0.56 0.59 0.62 0.56 0.49 0.46 0.55 0.62 0.62 0.59 0.55 0.45 0.35 0.40 0.35 0.50 0.84 1.37 2.00 1.54 0.88 0.63 0.52 0.45 0.45 0.46 0.45 0.40 0.32
0.21 0.21 0.17 0.16 0.17 0.17 0.21 0.28 0.39 0.50 0.60 0.66 0.64 0.62 0.56 0.60 0.68 0.68 0.69 0.66 0.56 0.39 0.42 0.43 0.71 1.47 2.17 2.55 2.11 1.31 0.98 0.77 0.63 0.64 0.65 0.56 0.43 0.32
0.25 0.23 0.18 0.14 0.18 0.23 0.22 0.22 0.31 0.38 0.52 0.69 0.75 0.68 0.65 0.67 0.77 0.81 0.77 0.76 0.73 0.53 0.54 0.58 0.88 1.74 2.08 2.30 2.11 1.44 1.14 0.96 0.85 0.88 0.85 0.64 0.44 0.32
0.18 0.21 0.25 0.27 0.20 0.17 0.19 0.29 0.40 0.48 0.52 0.58 0.69 0.66 0.62 0.64 0.71 0.75 0.73 0.74 0.67 0.59 0.61 0.75 1.01 1.63 1.74 1.88 1.94 1.50 1.23 1.10 1.03 1.00 0.92 0.68 0.47 0.37
0.12 0.13 0.16 0.21 0.16 0.15 0.26 0.43 0.51 0.62 0.64 0.75 0.75 0.69 0.69 0.69 0.61 0.60 0.77 0.88 0.82 0.62 0.57 0.74 0.98 1.31 1.43 1.57 1.58 1.46 1.34 1.25 1.15 1.08 0.96 0.70 0.52 0.44
0.16 0.19 0.15 0.12 0.13 0.17 0.30 0.51 0.66 0.72 0.86 1.04 1.00 0.93 0.86 0.82 0.69 0.66 0.87 1.02 1.00 0.83 0.64 0.70 0.88 1.04 1.28 1.35 1.28 1.24 1.32 1.37 1.29 1.25 1.08 0.78 0.52 0.44
0.20 0.25 0.25 0.17 0.17 0.19 0.31 0.53 0.70 0.72 0.93 1.20 1.10 0.93 0.85 0.79 0.76 0.78 0.85 0.91 0.90 0.86 0.66 0.71 0.89 1.01 1.13 1.22 1.20 1.22 1.22 1.29 1.33 1.39 1.29 0.99 0.65 0.46
0.30 0.30 0.29 0.26 0.23 0.28 0.41 0.60 0.74 0.89 1.06 1.16 0.99 0.81 0.69 0.67 0.67 0.62 0.61 0.63 0.67 0.69 0.63 0.70 0.92 1.09 1.09 1.03 1.15 1.18 1.21 1.27 1.33 1.40 1.40 1.18 0.89 0.68
0.30 0.34 0.33 0.30 0.38 0.56 0.68 0.79 0.92 1.08 1.12 1.00 0.86 0.75 0.62 0.56 0.52 0.51 0.50 0.53 0.56 0.50 0.45 0.51 0.73 0.93 1.00 0.97 1.06 1.09 1.19 1.41 1.45 1.45 1.41 1.26 1.05 0.82
0.26 0.39 0.47 0.50 0.64 0.84 0.98 1.07 1.14 1.15 1.01 0.90 0.79 0.68 0.56 0.51 0.49 0.45 0.47 0.49 0.53 0.53 0.46 0.46 0.59 0.76 0.88 0.87 0.96 1.08 1.16 1.54 1.67 1.50 1.43 1.40 1.20 0.97
0.26 0.41 0.57 0.63 0.76 0.92 1.03 1.08 1.10 1.09 1.00 0.87 0.76 0.66 0.57 0.52 0.49 0.42 0.41 0.43 0.46 0.49 0.49 0.51 0.57 0.63 0.68 0.74 0.90 1.06 1.19 1.44 1.57 1.39 1.25 1.36 1.31 1.09
0.31 0.52 0.64 0.66 0.74 0.84 0.93 1.00 0.99 0.95 0.87 0.82 0.77 0.71 0.62 0.53 0.50 0.45 0.41 0.41 0.45 0.45 0.47 0.45 0.44 0.42 0.48 0.62 0.87 0.98 1.04 1.24 1.30 1.16 0.97 1.04 1.21 1.08
0.38 0.58 0.68 0.74 0.79 0.82 0.83 0.86 0.90 0.90 0.82 0.75 0.71 0.65 0.56 0.49 0.46 0.43 0.39 0.37 0.38 0.38 0.36 0.30 0.27 0.25 0.32 0.64 0.94 1.03 0.97 0.98 0.95 0.92 0.84 0.80 0.95 0.95
0.42 0.57 0.67 0.73 0.77 0.79 0.77 0.73 0.77 0.79 0.72 0.64 0.59 0.54 0.49 0.46 0.41 0.39 0.35 0.28 0.27 0.27 0.26 0.23 0.22 0.23 0.28 0.50 0.92 1.14 0.96 0.72 0.64 0.68 0.69 0.69 0.81 0.87
0.38 0.51 0.60 0.65 0.66 0.67 0.67 0.65 0.66 0.67 0.63 0.57 0.53 0.49 0.45 0.41 0.37 0.30 0.26 0.18 0.21 0.22 0.23 0.27 0.28 0.22 0.19 0.25 0.54 0.86 0.91 0.81 0.60 0.51 0.50 0.53 0.56 0.54
0.34 0.45 0.54 0.56 0.55 0.51 0.49 0.49 0.50 0.50 0.50 0.48 0.47 0.45 0.41 0.36 0.29 0.24 0.21 0.21 0.22 0.20 0.20 0.22 0.21 0.18 0.18 0.23 0.41 0.61 0.68 0.61 0.54 0.53 0.49 0.38 0.32 0.40
0.32 0.36 0.42 0.45 0.44 0.40 0.36 0.34 0.34 0.37 0.38 0.38 0.39 0.38 0.33 0.29 0.23 0.18 0.16 0.13 0.13 0.14 0.13 0.16 0.16 0.15 0.15 0.17 0.23 0.31 0.35 0.32 0.28 0.31 0.45 0.48 0.41 0.47

GEFSNE_prec_meanprecacc_132.txt.gz
Total_Precipitation_Accumulation
0.60 0.61 0.65 0.68 0.72 0.78 0.84 0.92 1.01 1.04 0.94 0.78 0.73 0.68 0.60 0.63 0.78 0.67 0.56 0.49 0.38 0.29 0.25 0.23 0.22 0.21 0.20 0.20 0.20 0.21 0.23 0.27 0.38 0.52 0.67 0.80 0.89 0.96
0.55 0.52 0.54 0.56 0.59 0.64 0.71 0.73 0.78 0.85 0.86 0.71 0.59 0.56 0.55 0.57 0.73 0.64 0.62 0.56 0.41 0.30 0.23 0.19 0.17 0.17 0.17 0.17 0.16 0.18 0.20 0.23 0.31 0.41 0.55 0.69 0.81 0.95
0.51 0.50 0.48 0.48 0.50 0.52 0.57 0.62 0.66 0.71 0.81 0.75 0.60 0.54 0.54 0.56 0.58 0.53 0.52 0.47 0.39 0.35 0.26 0.21 0.18 0.15 0.14 0.15 0.16 0.19 0.22 0.27 0.33 0.40 0.53 0.68 0.78 0.83
0.46 0.44 0.43 0.44 0.46 0.47 0.50 0.54 0.60 0.68 0.78 0.81 0.66 0.54 0.49 0.47 0.46 0.45 0.38 0.34 0.34 0.36 0.27 0.20 0.16 0.16 0.20 0.17 0.14 0.16 0.22 0.31 0.39 0.45 0.55 0.65 0.72 0.76
0.39 0.41 0.43 0.43 0.42 0.43 0.46 0.49 0.56 0.64 0.75 0.77 0.66 0.56 0.50 0.48 0.55 0.51 0.43 0.49 0.39 0.34 0.28 0.22 0.19 0.19 0.41 0.46 0.23 0.18 0.22 0.33 0.40 0.46 0.57 0.63 0.63 0.61
0.27 0.32 0.38 0.41 0.41 0.46 0.49 0.51 0.55 0.62 0.66 0.69 0.60 0.50 0.50 0.51 0.61 0.66 0.60 0.55 0.47 0.29 0.31 0.27 0.25 0.30 0.66 1.20 0.67 0.35 0.29 0.33 0.39 0.44 0.49 0.49 0.46 0.42
0.21 0.24 0.28 0.32 0.38 0.41 0.42 0.47 0.54 0.62 0.65 0.67 0.61 0.54 0.51 0.61 0.68 0.68 0.63 0.58 0.48 0.38 0.42 0.37 0.52 0.85 1.38 2.01 1.54 0.88 0.63 0.52 0.45 0.45 0.46 0.45 0.40 0.32
0.23 0.23 0.20 0.19 0.21 0.22 0.28 0.36 0.45 0.55 0.64 0.70 0.68 0.66 0.59 0.63 0.72 0.72 0.72 0.70 0.60 0.42 0.43 0.44 0.72 1.47 2.18 2.56 2.12 1.32 0.99 0.77 0.63 0.64 0.65 0.56 0.43 0.32
0.28 0.26 0.20 0.17 0.21 0.25 0.25 0.27 0.36 0.42 0.55 0.71 0.77 0.70 0.66 0.70 0.81 0.84 0.79 0.78 0.75 0.56 0.57 0.61 0.90 1.75 2.09 2.30 2.12 1.44 1.15 0.97 0.86 0.88 0.85 0.64 0.44 0.32
0.20 0.22 0.27 0.29 0.23 0.20 0.22 0.31 0.42 0.49 0.54 0.60 0.70 0.66 0.63 0.65 0.73 0.79 0.76 0.76 0.69 0.61 0.63 0.76 1.03 1.64 1.75 1.89 1.95 1.51 1.23 1.10 1.03 1.00 0.92 0.68 0.47 0.37
0.14 0.15 0.18 0.23 0.18 0.17 0.27 0.44 0.52 0.63 0.65 0.76 0.76 0.70 0.70 0.69 0.61 0.63 0.80 0.92 0.86 0.65 0.59 0.75 0.99 1.31 1.44 1.57 1.58 1.46 1.34 1.25 1.15 1.08 0.96 0.70 0.52 0.44
0.17 0.20 0.16 0.13 0.14 0.19 0.31 0.51 0.67 0.73 0.86 1.05 1.00 0.93 0.86 0.82 0.70 0.67 0.89 1.06 1.05 0.86 0.66 0.71 0.88 1.05 1.28 1.35 1.29 1.25 1.33 1.37 1.30 1.25 1.08 0.78 0.52 0.44
0.20 0.25 0.25 0.18 0.17 0.19 0.31 0.53 0.70 0.72 0.94 1.20 1.10 0.93 0.86 0.80 0.77 0.79 0.87 0.94 0.92 0.88 0.69 0.73 0.91 1.01 1.13 1.22 1.21 1.22 1.22 1.30 1.34 1.39 1.29 0.99 0.65 0.46
0.30 0.30 0.29 0.26 0.23 0.28 0.42 0.61 0.75 0.90 1.06 1.16 0.99 0.81 0.70 0.69 0.69 0.64 0.62 0.64 0.69 0.70 0.65 0.71 0.93 1.10 1.10 1.03 1.15 1.18 1.21 1.27 1.33 1.40 1.41 1.19 0.89 0.68
0.30 0.34 0.33 0.30 0.38 0.56 0.69 0.80 0.93 1.09 1.13 1.00 0.86 0.75 0.63 0.58 0.54 0.52 0.51 0.54 0.57 0.51 0.46 0.52 0.74 0.94 1.01 0.97 1.06 1.09 1.19 1.41 1.46 1.45 1.41 1.26 1.05 0.82
0.26 0.39 0.47 0.50 0.65 0.85 0.98 1.07 1.15 1.16 1.01 0.90 0.79 0.69 0.57 0.54 0.52 0.46 0.48 0.50 0.54 0.54 0.46 0.47 0.59 0.76 0.88 0.87 0.96 1.08 1.16 1.55 1.68 1.50 1.44 1.40 1.20 0.98
0.26 0.41 0.57 0.63 0.76 0.92 1.03 1.08 1.11 1.09 1.01 0.88 0.77 0.67 0.59 0.54 0.50 0.43 0.42 0.44 0.47 0.49 0.50 0.51 0.57 0.63 0.68 0.74 0.90 1.06 1.19 1.44 1.57 1.40 1.26 1.37 1.31 1.09
0.31 0.52 0.64 0.66 0.74 0.84 0.93 1.01 1.00 0.95 0.88 0.83 0.78 0.72 0.63 0.54 0.50 0.45 0.41 0.41 0.45 0.45 0.47 0.46 0.44 0.42 0.48 0.62 0.88 0.99 1.04 1.24 1.30 1.16 0.98 1.04 1.21 1.08
0.38 0.58 0.68 0.74 0.79 0.82 0.83 0.86 0.91 0.91 0.82 0.76 0.71 0.65 0.56 0.50 0.46 0.43 0.39 0.37 0.38 0.38 0.36 0.30 0.27 0.25 0.32 0.64 0.94 1.03 0.97 0.98 0.95 0.92 0.84 0.80 0.95 0.96
0.42 0.57 0.67 0.73 0.77 0.79 0.77 0.74 0.77 0.79 0.73 0.65 0.60 0.54 0.49 0.46 0.41 0.39 0.35 0.28 0.27 0.27 0.26 0.23 0.22 0.23 0.28 0.50 0.92 1.14 0.96 0.72 0.64 0.69 0.70 0.69 0.81 0.87
0.38 0.51 0.60 0.65 0.66 0.67 0.67 0.65 0.66 0.67 0.63 0.57 0.53 0.49 0.45 0.41 0.37 0.30 0.26 0.18 0.21 0.22 0.23 0.27 0.28 0.22 0.19 0.25 0.54 0.86 0.91 0.81 0.60 0.52 0.50 0.53 0.57 0.54
0.34 0.45 0.54 0.56 0.55 0.51 0.49 0.49 0.50 0.50 0.50 0.48 0.47 0.45 0.41 0.36 0.29 0.24 0.21 0.21 0.22 0.20 0.20 0.22 0.21 0.18 0.18 0.23 0.41 0.61 0.68 0.61 0.55 0.53 0.49 0.39 0.33 0.41
0.32 0.36 0.42 0.45 0.44 0.40 0.36 0.34 0.34 0.37 0.38 0.38 0.39 0.38 0.33 0.29 0.23 0.18 0.16 0.13 0.13 0.14 0.13 0.16 0.16 0.15 0.15 0.17 0.23 0.32 0.35 0.33 0.28 0.31 0.45 0.49 0.41 0.48